This is the latest recevied weather packets stored in our database for station/object OM6ABF-12. If no packets are shown the sender has not sent any weather packets the latest 10 day(s).
| Time | Temp. | Humidity | Pressure | Rain* | Wind** | Luminosity | Snow |
|---|---|---|---|---|---|---|---|
| 1777214629 | 5.56° C | 34% | 1028.6 hPa | - | - | - | - |
| 1777213671 | 5.56° C | 34% | 1028.4 hPa | - | - | - | - |
| 1777212713 | 5.56° C | 35% | 1028.2 hPa | - | - | - | - |
| 1777211755 | 5.56° C | 33% | 1028.3 hPa | - | - | - | - |
| 1777210797 | 6.67° C | 32% | 1028.1 hPa | - | - | - | - |
| 1777209840 | 6.67° C | 32% | 1028.4 hPa | - | - | - | - |
| 1777208881 | 6.67° C | 32% | 1028.3 hPa | - | - | - | - |
| 1777207923 | 6.67° C | 33% | 1028.3 hPa | - | - | - | - |
| 1777206964 | 7.22° C | 31% | 1028.2 hPa | - | - | - | - |
| 1777206005 | 7.22° C | 34% | 1028.1 hPa | - | - | - | - |
| 1777205047 | 6.11° C | 34% | 1027.9 hPa | - | - | - | - |
| 1777204090 | 5.56° C | 33% | 1027.8 hPa | - | - | - | - |
| 1777203134 | 6.67° C | 34% | 1027.9 hPa | - | - | - | - |
| 1777202175 | 6.67° C | 34% | 1027.6 hPa | - | - | - | - |
| 1777201213 | 5.56° C | 37% | 1027.7 hPa | - | - | - | - |
| 1777200255 | 3.89° C | 39% | 1027.5 hPa | - | - | - | - |
| 1777199300 | 3.89° C | 41% | 1027.2 hPa | - | - | - | - |
| 1777198342 | 4.44° C | 39% | 1027 hPa | - | - | - | - |
| 1777197386 | 4.44° C | 39% | 1026.9 hPa | - | - | - | - |
| 1777196428 | 4.44° C | 41% | 1026.7 hPa | - | - | - | - |
| 1777195471 | 4.44° C | 41% | 1026.5 hPa | - | - | - | - |
| 1777194514 | 3.89° C | 39% | 1026 hPa | - | - | - | - |
| 1777193556 | 3.89° C | 42% | 1025.8 hPa | - | - | - | - |
| 1777192599 | 4.44° C | 40% | 1025.5 hPa | - | - | - | - |
| 1777191641 | 4.44° C | 42% | 1025.2 hPa | - | - | - | - |
* Rain since midnight (hover to see other rain measurements)
** Current wind speed in m/s (hover to see current wind gust speed)